Overview Statistics Trail Chart Weather Telemetry Raw packets
 

This is the latest recevied weather packets stored in our database for station/object VA2RBQ-7. If no packets are shown the sender has not sent any weather packets the latest 10 day(s).

<< 2 3 4 5 6 7 8 >>
Time Temp. Humidity Pressure Rain* Wind** Luminosity Snow
1788547311 13.89° C 73% 1013.7 hPa 0 mm - - -
1788547008 13.89° C 73% 1013.8 hPa 0 mm - - -
1788546706 13.33° C 73% 1013.9 hPa 0 mm - - -
1788546403 13.33° C 73% 1013.8 hPa 0 mm - - -
1788546100 13.89° C 73% 1013.8 hPa 0 mm - - -
1788545798 13.33° C 73% 1013.8 hPa 0 mm - - -
1788545495 13.33° C 73% 1013.9 hPa 0 mm - - -
1788545193 12.78° C 73% 1013.8 hPa 0 mm - - -
1788544890 12.22° C 73% 1013.8 hPa 0 mm - - -
1788544587 11.67° C 73% 1013.7 hPa 0 mm - - -
1788544285 12.22° C 74% 1013.8 hPa 0 mm - - -
1788543982 12.22° C 74% 1013.8 hPa 0 mm - - -
1788543680 12.78° C 74% 1013.8 hPa 0 mm - - -
1788543377 13.89° C 74% 1013.9 hPa 0 mm - - -
1788543074 13.89° C 74% 1013.7 hPa 0 mm - - -
1788542772 14.44° C 74% 1013.8 hPa 0 mm - - -
1788542469 14.44° C 74% 1013.8 hPa 0 mm - - -
1788542167 13.89° C 74% 1013.8 hPa 0 mm - - -
1788541864 14.44° C 74% 1013.9 hPa 0 mm - - -
1788541561 14.44° C 74% 1013.8 hPa 0 mm - - -
1788541259 14.44° C 74% 1013.9 hPa 0 mm - - -
1788540956 14.44° C 74% 1014 hPa 0 mm - - -
1788540654 14.44° C 74% 1014 hPa 0 mm - - -
1788540351 13.89° C 74% 1014.1 hPa 0 mm - - -
1788540048 14.44° C 74% 1014 hPa 0 mm - - -

* Rain since midnight (hover to see other rain measurements)
** Current wind speed in m/s (hover to see current wind gust speed)